SB KEPS @ AMSAT $ORB09285.N 2Line Orbital Elements 09285.AMSAT
HR AMSAT ORBITAL ELEMENTS FOR AMATEUR SATELLITES IN NASA FORMAT FROM WA5QGD FORT WORTH,TX October 12, 2009 Send Subscribe/unsubscribe to KEPS at http://www.amsat.org/mailman/listinfo/keps BID: ORB09285.N
DECODE 2-LINE ELSETS WITH THE FOLLOWING KEY: 1 AAAAAU 00 0 0 BBBBB.BBBBBBBB .CCCCCCCC 00000-0 00000-0 0 DDDZ 2 AAAAA EEE.EEEE FFF.FFFF GGGGGGG HHH.HHHH III.IIII JJ.JJJJJJJJKKKKKZ KEY: A-CATALOGNUM B-EPOCHTIME C-DECAY D-ELSETNUM E-INCLINATION F-RAAN G-ECCENTRICITY H-ARGPERIGEE I-MNANOM J-MNMOTION K-ORBITNUM Z-CHECKSUM
TO ALL RADIO AMATEURS BT
AO-07 1 07530U 74089B 09284.68588776 -.00000027 00000-0 10000-3 0 06037 2 07530 101.4203 305.0610 0012100 040.9512 319.2461 12.53576789597312 FO-29 1 24278U 96046B 09284.62612305 .00000012 00000-0 46433-4 0 01692 2 24278 098.5333 142.9104 0351297 048.6507 314.4291 13.52946048649492 SO-33 1 25509U 98061B 09284.92153208 -.00000176 00000-0 -49113-4 0 05644 2 25509 031.4331 112.4037 0354962 279.0919 076.9709 14.28266679572533 RS-22 1 27939U 03042A 09284.64639818 .00000026 00000-0 13782-4 0 09125 2 27939 097.9226 155.1593 0014292 121.7698 238.4884 14.63346217322605 VO-52 1 28650U 05017B 09285.56119120 .00000142 00000-0 24557-4 0 3407 2 28650 097.7291 343.1782 0027154 008.9529 351.2171 14.81628280240026 AO-16 1 20439U 90005D 09285.46427211 -.00000013 00000-0 10572-4 0 7243 2 20439 098.2953 248.6217 0010746 177.6266 182.4971 14.31835278 29936 LO-19 1 20442U 90005G 09284.66365852 -.00000099 00000-0 -21536-4 0 06381 2 20442 098.2591 254.6660 0012104 176.1822 183.9450 14.32069238029988 AO-27 1 22825U 93061C 09284.77532568 -.00000018 00000-0 95829-5 0 3615 2 22825 098.4511 234.6003 0007469 281.0532 078.9807 14.29274985836562 IO-26 1 22826U 93061D 09284.88495070 -.00000005 00000-0 14628-4 0 00928 2 22826 098.4440 235.4068 0008126 278.1128 081.9139 14.29528034836685 GO-32 1 25397U 98043D 09284.78094626 -.00000054 00000-0 -60766-5 0 00133 2 25397 098.3237 300.8552 0000329 250.5995 109.5145 14.23164421584710 NO-44 1 26931U 01043C 09284.84152504 .00000206 00000-0 11270-3 0 2862 2 26931 067.0505 123.8082 0006699 272.6646 087.3678 14.29570482419255 SO-50 1 27607U 02058C 09285.69718045 -.00000011 00000-0 20160-4 0 66 2 27607 064.5596 028.1950 0053024 175.8020 184.3542 14.71464934365960 CO-55 1 27844U 03031E 09284.76505892 .00000039 00000-0 38249-4 0 6862 2 27844 098.7143 292.2963 0009885 162.9105 197.2404 14.20659869325812 CO-57 1 27848U 03031J 09284.68850458 .00000034 00000-0 36315-4 0 6371 2 27848 098.7173 291.2848 0009622 167.6217 192.5184 14.20459254325768 AO-51 1 28375U 04025K 09285.54981769 .00000008 00000-0 14717-4 0 5076 2 28375 098.0545 288.3310 0084165 128.2125 232.6678 14.40654611277853 CO-56 1 28941U 06005C 09285.51775801 .00421528 27979-5 37889-3 0 5167 2 28941 098.1160 123.7786 0032727 037.9592 322.3981 16.11459230205930 GENESAT1 1 29655U 06058C 09285.83908173 .00014933 00000-0 13174-3 0 8302 2 29655 040.0226 164.8199 0005527 299.9869 060.0419 15.68243902160931 CP3 1 31129U 07012N 09285.72233495 .00000084 00000-0 30473-4 0 2564 2 31129 097.9732 333.0906 0101422 281.3103 077.6706 14.52168510131941 CO-65 1 32785U 08021C 09285.30680968 .00000103 00000-0 19880-4 0 4955 2 32785 097.9329 348.2265 0015390 015.1392 345.0267 14.81526358 78785 KKS-1 1 33493U 09002B 09285.88416004 .00000294 00000-0 45224-4 0 8397 2 33493 098.0667 038.6719 0019252 218.5566 141.4270 14.80744891 38888 SOHLA-1 1 33496U 09002E 09285.78057358 .00000025 00000-0 12469-4 0 8052 2 33496 098.0462 033.3042 0005362 271.1532 088.9059 14.69449682 38540 NOAA-10 1 16969U 86073A 09285.71086079 -.00000117 00000-0 -29788-4 0 7938 2 16969 098.6845 311.6785 0011819 211.5826 148.4643 14.27395459200279 NOAA-11 1 19531U 88089A 09285.31291860 .00000053 00000-0 50032-4 0 8111 2 19531 098.7810 013.4400 0012033 132.0737 228.1477 14.14904006 86080 NOAA-12 1 21263U 91032A 09285.73927083 -.00000004 00000-0 17128-4 0 2959 2 21263 098.7728 293.8682 0012546 160.8832 199.2819 14.25596384957143 MET-3/5 1 21655U 91056A 09285.90126120 .00000051 00000-0 10000-3 0 6666 2 21655 082.5541 123.3573 0012584 246.6040 113.3760 13.17020812873129 MET-2/21 1 22782U 93055A 09284.60467461 .00000001 00000-0 -12182-4 0 05884 2 22782 082.5436 089.6615 0023078 023.7028 336.5178 13.83638452813703 OKEAN-4 1 23317U 94066A 09284.78215356 .00000160 00000-0 16857-4 0 00439 2 23317 082.5404 225.6694 0022034 345.1590 014.8978 14.82726637809643 NOAA-14 1 23455U 94089A 09285.79441162 -.00000297 00000-0 -13345-3 0 7893 2 23455 098.8998 003.0096 0009046 212.1704 147.8906 14.13768785762545 NOAA-15 1 25338U 98030A 09285.54147326 -.00000099 00000-0 -23929-4 0 1156 2 25338 098.5971 272.2441 0011627 077.4884 282.7573 14.24786855593482 RESURS 1 25394U 98043A 09284.92505538 -.00000038 00000-0 11995-5 0 03498 2 25394 098.3322 311.2835 0000603 205.4102 154.7049 14.24188473585019 FENGYUN1 1 25730U 99025A 09285.89441048 .00000611 00000-0 38359-3 0 8734 2 25730 098.7638 252.5772 0020896 243.7231 116.1793 14.08008994536888 OKEAN-0 1 25860U 99039A 09284.82886633 .00000011 00000-0 89765-5 0 08089 2 25860 097.8007 261.4617 0001308 099.7703 260.3650 14.73590925550320 NOAA-16 1 26536U 00055A 09285.59360091 -.00000214 00000-0 -90185-4 0 5957 2 26536 099.1806 292.1241 0009862 315.5134 044.5253 14.12532956466877 NOAA-17 1 27453U 02032A 09285.47628549 .00000200 00000-0 10496-3 0 5864 2 27453 098.4694 340.4252 0012427 137.8829 222.3322 14.24098373379441 NOAA-18 1 28654U 05018A 09285.52369343 .00000110 00000-0 85329-4 0 745 2 28654 098.9179 227.9048 0014961 034.7395 325.4730 14.11293404226502 NOAA-19 1 33591U 09005A 09285.52888989 .00000157 00000-0 11125-3 0 2793 2 33591 098.7573 228.2915 0013237 272.0128 087.9503 14.10993165 34984 HUBBLE 1 20580U 90037B 09281.76047754 .00000357 00000-0 14565-4 0 04595 2 20580 028.4690 081.0453 0003227 051.7299 308.3589 15.00837656866933 ISS 1 25544U 98067A 09285.84058921 .00015548 00000-0 10707-3 0 7710 2 25544 051.6415 062.7187 0007592 191.6753 329.5685 15.74813454624484 CO-58 1 28895U 05043F 09283.21775713 -.00000043 00000-0 55959-6 0 04171 2 28895 098.0403 170.5063 0017697 351.5945 008.4942 14.59801165210518 FALCON 1 30776U 07006E 09284.92286384 .00000380 00000-0 30511-4 0 06926 2 30776 035.4328 111.1153 0001490 264.2101 095.8446 15.03325586142677 MAST 1 31126U 07012K 09284.78662288 .00000017 00000-0 14727-4 0 7062 2 31126 097.9760 334.1711 0093592 278.1118 080.9476 14.53521384131970 CAPE1 1 31130U 07012P 09284.66473203 -.00000061 00000-0 -29633-5 0 07188 2 31130 097.9771 331.9806 0101562 284.7794 074.2165 14.52091961131598 COMPASS 1 32787U 08021E 09285.20568781 .00000165 00000-0 27683-4 0 4873 2 32787 097.9271 347.9635 0016035 016.7093 343.4646 14.81667885 78775 AAUSAT2 1 32788U 08021F 09285.70397222 .00000306 00000-0 45458-4 0 4821 2 32788 097.9304 348.5367 0016123 016.0220 344.1500 14.81795549 78850 DO-64 1 32789U 08021G 09285.72546152 .00000118 00000-0 21716-4 0 4981 2 32789 097.9328 348.7982 0015951 013.7671 346.3968 14.81812304 78855 CO-66 1 32791U 08021J 09285.19478266 -.00000055 00000-0 -25153-6 0 4797 2 32791 097.9318 347.9846 0016564 014.1871 345.9794 14.81487750 78737 RS-30 1 32953U 08025A 09284.81913547 .00000010 00000-0 00000 0 0 4263 2 32953 082.5052 184.0982 0018407 288.2389 071.6690 12.43003059 62888 TACSAT-3 1 35001U 09028A 09284.94535051 .00002355 00000-0 64303-4 0 01215 2 35001 040.4575 262.2243 0025218 310.0168 049.8437 15.39300082022341 PHARMSAT 1 35002U 09028B 09284.35475206 .00002016 00000-0 54525-4 0 01204 2 35002 040.4691 264.9235 0028001 309.1968 050.6361 15.40039193022251 HAWKSAT1 1 35003U 09028C 09284.94888842 .00004242 00000-0 10514-3 0 01194 2 35003 040.4638 260.5028 0028265 317.1930 042.6719 15.40879269022361 CP6 1 35004U 09028D 09284.94661405 .00004780 00000-0 11741-3 0 01133 2 35004 040.4640 260.4906 0027762 317.5549 042.3133 15.40971510022358 AEROCUB3 1 35005U 09028E 09284.96457133 .00004768 00000-0 11799-3 0 01226 2 35005 040.4760 260.7899 0027838 314.4920 045.3654 15.40751180022359 DRAGNSAT 1 35690U 09038B 09284.80378540 .00032661 00000-0 14570-3 0 00765 2 35690 051.6416 063.5471 0004045 355.4022 004.6973 15.83939927011601 POLLUX 1 35693U 09038E 09285.77832344 .00030924 00000-0 14289-3 0 736 2 35693 051.6402 058.8149 0003511 306.2170 053.8655 15.83225810 11728 CASTOR 1 35694U 09038F 09284.80289517 .00014690 00000-0 75197-4 0 00703 2 35694 051.6406 064.3194 0003314 304.6725 055.3981 15.81593859011564 METEOR-M 1 35865U 09049A 09284.86286414 .00000176 00000-0 10000-3 0 00237 2 35865 098.7970 334.9699 0003006 018.0496 342.0763 14.21827135003438 STERKH-2 1 35866U 09049B 09284.85490013 .00000178 00000-0 10000-3 0 00264 2 35866 098.7970 334.9841 0003782 011.9362 348.1881 14.22296629003430 FREGAT-I 1 35867U 09049C 09284.84547142 .00002265 00000-0 10000-3 0 360 2 35867 097.3705 334.4703 0009498 195.7614 164.3227 15.22724818 3670 SUMBDILA 1 35870U 09049F 09285.78893583 .00000348 00000-0 17834-4 0 735 2 35870 097.3691 335.3867 0011018 199.6753 296.9377 15.22806507 3817 /EX
participants (1)
-
Ray Hoad